When you browse on this site, cookies collect data to enhance your experience and personalize the content and advertising you see.
Visit our Privacy Policy to learn more. By continuing to use the site, you agree to this use of cookies and data.
  • en Suisse
  • Liste des pays
  • À 7 jours
  • Température de l'eau
  • Carte satellitaire
  • Carte météo
  • Widgets météo
  • user-avatar
    Se connecter

    Météo par heure à Biskra

    Ce jour, 25 Mars, Lundi

    Heure Température Précipitation Vent Pression Humidité
    00:00 +18°C° 0 mm 1 m/s 757 mmHg 48%
    01:00 +18°C° 0 mm 1 m/s 757 mmHg 49%
    02:00 +16°C° 0 mm 1 m/s 757 mmHg 51%
    03:00 +14°C° 0 mm 0 m/s 756 mmHg 53%
    04:00 +14°C° 0 mm 0 m/s 756 mmHg 53%
    05:00 +15°C° 0 mm 1 m/s 756 mmHg 53%
    06:00 +15°C° 0 mm 1 m/s 756 mmHg 53%
    07:00 +16°C° 0 mm 1 m/s 756 mmHg 49%
    08:00 +19°C° 0 mm 1 m/s 756 mmHg 44%
    09:00 +20°C° 0 mm 1 m/s 756 mmHg 39%
    10:00 +21°C° 0 mm 1 m/s 756 mmHg 36%
    11:00 +21°C° 0 mm 2 m/s 755 mmHg 34%
    12:00 +23°C° 0 mm 2 m/s 755 mmHg 31%
    13:00 +24°C° 0 mm 2 m/s 754 mmHg 30%
    14:00 +24°C° 0 mm 2 m/s 754 mmHg 28%
    15:00 +25°C° 0 mm 2 m/s 753 mmHg 27%
    16:00 +24°C° 0 mm 2 m/s 753 mmHg 28%
    17:00 +24°C° 0 mm 2 m/s 752 mmHg 28%
    18:00 +24°C° 0 mm 2 m/s 752 mmHg 29%
    19:00 +23°C° 0 mm 2 m/s 753 mmHg 30%
    20:00 +23°C° 0 mm 2 m/s 753 mmHg 31%
    21:00 +23°C° 0 mm 2 m/s 753 mmHg 32%
    22:00 +21°C° 0 mm 2 m/s 753 mmHg 34%
    23:00 +21°C° 0 mm 1 m/s 753 mmHg 36%

    Demain, 26 Mars, Mardi

    Heure Température Précipitation Vent Pression Humidité
    00:00 +20°C° 0 mm 1 m/s 753 mmHg 38%
    01:00 +20°C° 0 mm 1 m/s 752 mmHg 39%
    02:00 +19°C° 0 mm 1 m/s 752 mmHg 39%
    03:00 +18°C° 0 mm 2 m/s 752 mmHg 39%
    04:00 +18°C° 0 mm 2 m/s 751 mmHg 39%
    05:00 +18°C° 0 mm 2 m/s 751 mmHg 40%
    06:00 +18°C° 0 mm 3 m/s 751 mmHg 40%
    07:00 +19°C° 0 mm 2 m/s 751 mmHg 37%
    08:00 +20°C° 0 mm 2 m/s 752 mmHg 34%
    09:00 +21°C° 0 mm 2 m/s 752 mmHg 32%
    10:00 +22°C° 0 mm 3 m/s 752 mmHg 33%
    11:00 +22°C° 0 mm 4 m/s 752 mmHg 34%
    12:00 +23°C° 0 mm 4 m/s 752 mmHg 35%
    13:00 +22°C° 0.1 mm 3 m/s 752 mmHg 38%
    14:00 +23°C° 0.1 mm 2 m/s 751 mmHg 41%
    15:00 +21°C° 0.1 mm 2 m/s 751 mmHg 44%
    16:00 +21°C° 0 mm 2 m/s 751 mmHg 43%
    17:00 +21°C° 0 mm 3 m/s 751 mmHg 43%
    18:00 +21°C° 0 mm 4 m/s 751 mmHg 42%
    19:00 +21°C° 0 mm 4 m/s 752 mmHg 44%
    20:00 +21°C° 0 mm 3 m/s 752 mmHg 45%
    21:00 +20°C° 0 mm 3 m/s 753 mmHg 47%
    22:00 +20°C° 0 mm 3 m/s 753 mmHg 48%
    23:00 +20°C° 0 mm 3 m/s 753 mmHg 50%

    Après-demain, 27 Mars, Mercredi

    Heure Température Précipitation Vent Pression Humidité
    00:00 +19°C° 0 mm 4 m/s 752 mmHg 51%
    01:00 +19°C° 0 mm 5 m/s 752 mmHg 52%
    02:00 +17°C° 0 mm 5 m/s 752 mmHg 53%
    03:00 +16°C° 0 mm 6 m/s 752 mmHg 54%
    04:00 +16°C° 0 mm 6 m/s 752 mmHg 54%
    05:00 +16°C° 0 mm 6 m/s 752 mmHg 53%
    06:00 +15°C° 0 mm 5 m/s 753 mmHg 52%
    07:00 +15°C° 0.2 mm 5 m/s 753 mmHg 52%
    08:00 +15°C° 0.2 mm 5 m/s 753 mmHg 53%
    09:00 +14°C° 0.2 mm 4 m/s 753 mmHg 53%
    10:00 +16°C° 0.1 mm 3 m/s 753 mmHg 53%
    11:00 +16°C° 0.1 mm 3 m/s 753 mmHg 53%
    12:00 +16°C° 0.1 mm 2 m/s 753 mmHg 52%
    13:00 +16°C° 0 mm 2 m/s 753 mmHg 52%
    14:00 +16°C° 0 mm 2 m/s 753 mmHg 52%
    15:00 +17°C° 0 mm 2 m/s 752 mmHg 51%
    16:00 +16°C° 0.3 mm 3 m/s 753 mmHg 54%
    17:00 +16°C° 0.3 mm 3 m/s 753 mmHg 56%
    18:00 +14°C° 0.3 mm 3 m/s 753 mmHg 59%
    19:00 +14°C° 0 mm 3 m/s 753 mmHg 58%
    20:00 +14°C° 0 mm 3 m/s 754 mmHg 57%
    21:00 +14°C° 0 mm 3 m/s 754 mmHg 56%
    22:00 +14°C° 0 mm 3 m/s 754 mmHg 55%
    23:00 +14°C° 0 mm 3 m/s 754 mmHg 55%

    28 Mars, Jeudi

    Heure Température Précipitation Vent Pression Humidité
    00:00 +14°C° 0 mm 3 m/s 754 mmHg 54%
    01:00 +14°C° 0 mm 3 m/s 754 mmHg 54%
    02:00 +13°C° 0 mm 3 m/s 754 mmHg 55%
    03:00 +14°C° 0 mm 2 m/s 754 mmHg 55%
    04:00 +14°C° 0.1 mm 2 m/s 755 mmHg 57%
    05:00 +14°C° 0.1 mm 2 m/s 755 mmHg 58%
    06:00 +14°C° 0.1 mm 2 m/s 755 mmHg 60%
    07:00 +15°C° 0 mm 2 m/s 755 mmHg 57%
    08:00 +15°C° 0 mm 2 m/s 756 mmHg 54%
    09:00 +16°C° 0 mm 1 m/s 756 mmHg 51%
    10:00 +18°C° 0 mm 1 m/s 756 mmHg 48%
    11:00 +19°C° 0 mm 1 m/s 756 mmHg 46%
    12:00 +19°C° 0 mm 1 m/s 755 mmHg 44%
    13:00 +20°C° 0 mm 1 m/s 755 mmHg 42%
    14:00 +20°C° 0 mm 1 m/s 754 mmHg 40%
    15:00 +21°C° 0 mm 1 m/s 754 mmHg 38%
    16:00 +20°C° 0 mm 2 m/s 754 mmHg 38%
    17:00 +20°C° 0 mm 2 m/s 755 mmHg 39%
    18:00 +20°C° 0 mm 2 m/s 755 mmHg 39%
    19:00 +19°C° 0 mm 2 m/s 756 mmHg 41%
    20:00 +19°C° 0 mm 2 m/s 756 mmHg 42%
    21:00 +20°C° 0 mm 1 m/s 757 mmHg 44%
    22:00 +19°C° 0 mm 2 m/s 757 mmHg 45%
    23:00 +18°C° 0 mm 2 m/s 757 mmHg 45%

    29 Mars, Vendredi

    Heure Température Précipitation Vent Pression Humidité
    00:00 +18°C° 0 mm 2 m/s 757 mmHg 46%
    01:00 +18°C° 0 mm 2 m/s 757 mmHg 48%
    02:00 +18°C° 0 mm 2 m/s 757 mmHg 49%
    03:00 +17°C° 0 mm 2 m/s 757 mmHg 50%
    04:00 +17°C° 0.1 mm 2 m/s 758 mmHg 53%
    05:00 +17°C° 0.1 mm 2 m/s 758 mmHg 55%
    06:00 +16°C° 0.1 mm 2 m/s 758 mmHg 57%
    07:00 +16°C° 0.1 mm 2 m/s 758 mmHg 58%
    08:00 +16°C° 0.1 mm 2 m/s 759 mmHg 58%
    09:00 +17°C° 0.1 mm 2 m/s 759 mmHg 58%
    10:00 +17°C° 0 mm 2 m/s 759 mmHg 56%
    11:00 +18°C° 0 mm 2 m/s 758 mmHg 53%
    12:00 +18°C° 0 mm 2 m/s 758 mmHg 51%
    13:00 +19°C° 0 mm 2 m/s 758 mmHg 48%
    14:00 +19°C° 0 mm 2 m/s 757 mmHg 45%
    15:00 +20°C° 0 mm 2 m/s 757 mmHg 42%
    16:00 +20°C° 0 mm 2 m/s 757 mmHg 43%
    17:00 +20°C° 0 mm 2 m/s 757 mmHg 43%
    18:00 +19°C° 0 mm 2 m/s 757 mmHg 44%
    19:00 +19°C° 0 mm 2 m/s 758 mmHg 46%
    20:00 +19°C° 0 mm 1 m/s 758 mmHg 48%
    21:00 +19°C° 0 mm 1 m/s 759 mmHg 51%
    22:00 +18°C° 0 mm 1 m/s 759 mmHg 53%
    23:00 +18°C° 0 mm 1 m/s 759 mmHg 54%

    30 Mars, Samedi

    Heure Température Précipitation Vent Pression Humidité
    00:00 +15°C° 0 mm 0 m/s 758 mmHg 56%
    01:00 +16°C° 0 mm 1 m/s 758 mmHg 57%
    02:00 +16°C° 0 mm 1 m/s 758 mmHg 57%
    03:00 +16°C° 0 mm 1 m/s 758 mmHg 57%
    04:00 +16°C° 0 mm 2 m/s 759 mmHg 57%
    05:00 +16°C° 0 mm 2 m/s 759 mmHg 57%
    06:00 +16°C° 0 mm 3 m/s 759 mmHg 58%
    07:00 +15°C° 0 mm 4 m/s 759 mmHg 57%
    08:00 +17°C° 0 mm 4 m/s 759 mmHg 55%
    09:00 +16°C° 0 mm 5 m/s 759 mmHg 54%
    10:00 +17°C° 0 mm 5 m/s 758 mmHg 50%
    11:00 +19°C° 0 mm 4 m/s 758 mmHg 46%
    12:00 +20°C° 0 mm 4 m/s 758 mmHg 41%
    13:00 +21°C° 0 mm 4 m/s 757 mmHg 39%
    14:00 +21°C° 0 mm 3 m/s 757 mmHg 37%
    15:00 +22°C° 0 mm 3 m/s 756 mmHg 35%
    16:00 +21°C° 0 mm 3 m/s 756 mmHg 35%
    17:00 +21°C° 0 mm 3 m/s 756 mmHg 36%
    18:00 +21°C° 0 mm 3 m/s 756 mmHg 36%
    19:00 +21°C° 0 mm 3 m/s 756 mmHg 37%
    20:00 +20°C° 0 mm 3 m/s 756 mmHg 38%
    21:00 +20°C° 0 mm 3 m/s 756 mmHg 39%
    22:00 +19°C° 0 mm 3 m/s 756 mmHg 41%
    23:00 +19°C° 0 mm 3 m/s 756 mmHg 42%
    Voir plus